GW0007 Weather Reports


Display with metric or nautical units.
time (UTC)temp
F
wind
direction
speed
MPH
gust
MPH
rain 1hr
in
rain 24hr
in
rain mn
in
humidity
%
barometer
mb
20260510144609 52 254 1.0 7.0 0.00 0.00 0.00 58 1020.5
20260510143035 50 94 0.0 3.0 0.00 0.00 0.00 67 1020.6
20260510141537 47 75 1.0 2.0 0.00 0.00 0.00 68 1020.6
20260510140043 46 82 1.0 2.0 0.00 0.00 0.00 69 1020.8
20260510134549 46 72 1.0 2.0 0.00 0.00 0.00 71 1020.8
20260510133036 43 0 0.0 2.0 0.00 0.00 0.00 72 1021.0
20260510131535 43 0 0.0 1.0 0.00 0.00 0.00 75 1021.0
20260510130045 41 0 0.0 1.0 0.00 0.00 0.00 80 1021.1
20260510124546 40 0 0.0 1.0 0.00 0.00 0.00 81 1021.1
20260510123040 37 0 0.0 2.0 0.00 0.00 0.00 84 1021.0
20260510121540 37 130 2.0 3.0 0.00 0.00 0.00 85 1021.0
20260510120048 36 0 0.0 1.0 0.00 0.00 0.00 87 1021.1
20260510114543 37 0 0.0 1.0 0.00 0.00 0.00 85 1021.1
20260510113041 36 272 0.0 1.0 0.00 0.00 0.00 88 1021.1
20260510111549 37 0 0.0 1.0 0.00 0.00 0.00 86 1020.9
20260510110047 39 275 2.0 4.0 0.00 0.00 0.00 81 1020.9
20260510104553 39 251 1.0 4.0 0.00 0.00 0.00 81 1020.9
20260510103044 38 207 2.0 3.0 0.00 0.00 0.00 87 1021.0
20260510101549 38 0 0.0 0.0 0.00 0.00 0.00 87 1020.9
20260510100052 38 0 0.0 0.0 0.00 0.00 0.00 86 1021.0
20260510094539 40 4 1.0 3.0 0.00 0.00 0.00 80 1021.0
20260510093048 42 294 3.0 7.0 0.00 0.00 0.00 76 1020.9
20260510091547 40 271 0.0 3.0 0.00 0.00 0.00 82 1020.8
20260510090043 40 0 0.0 1.0 0.00 0.00 0.00 83 1020.6
20260510084557 40 0 0.0 1.0 0.00 0.00 0.00 82 1020.8
20260510083101 40 255 1.0 4.0 0.00 0.00 0.00 83 1020.7
20260510081604 40 285 2.0 5.0 0.00 0.00 0.00 81 1020.6
20260510080043 41 273 2.0 4.0 0.00 0.00 0.00 82 1020.7
20260510074543 41 288 2.0 4.0 0.00 0.00 0.00 81 1020.7
20260510073049 41 317 1.0 2.0 0.00 0.00 0.00 81 1020.7
20260510071548 43 258 1.0 3.0 0.00 0.00 0.00 78 1020.6
20260510070048 44 217 1.0 5.0 0.00 0.00 0.00 74 1020.8
20260510064547 45 151 3.0 6.0 0.00 0.00 0.00 75 1020.6
20260510063049 45 102 2.0 4.0 0.00 0.00 0.00 76 1020.6
20260510061553 45 116 3.0 4.0 0.00 0.00 0.00 76 1020.5
20260510060047 46 136 3.0 4.0 0.00 0.00 0.00 73 1020.5
20260510054535 47 121 2.0 3.0 0.00 0.00 0.00 72 1020.3
20260510053052 48 0 0.0 1.0 0.00 0.00 0.00 74 1020.3
20260510051544 48 68 0.0 3.0 0.00 0.00 0.00 71 1020.3
20260510050039 49 77 2.0 4.0 0.00 0.00 0.00 69 1020.3
20260510044537 50 66 3.0 4.0 0.00 0.00 0.00 71 1020.2
20260510043036 51 72 1.0 1.0 0.00 0.00 0.00 69 1020.2
20260510041543 52 68 0.0 3.0 0.00 0.00 0.00 69 1020.2
20260510040040 53 78 2.0 4.0 0.00 0.00 0.00 63 1020.1
20260510034538 55 93 3.0 8.0 0.00 0.00 0.00 56 1020.0
20260510033037 56 131 5.0 8.0 0.00 0.00 0.00 56 1019.7
20260510031557 57 140 3.0 7.0 0.00 0.00 0.00 54 1019.6
20260510030051 58 115 3.0 8.0 0.00 0.00 0.00 53 1019.3
20260510024539 59 133 4.0 8.0 0.00 0.00 0.00 51 1019.1
20260510023047 59 123 3.0 5.0 0.00 0.00 0.00 49 1018.9
20260510021543 60 79 2.0 5.0 0.00 0.00 0.00 47 1018.6
20260510020042 60 87 2.0 3.0 0.00 0.00 0.00 46 1018.5
20260510014545 60 71 2.0 5.0 0.00 0.00 0.00 46 1018.5
20260510013054 61 72 3.0 8.0 0.00 0.00 0.00 44 1018.4
20260510011544 62 46 5.0 10.0 0.00 0.00 0.00 43 1018.1
20260510010043 64 24 5.0 7.0 0.00 0.00 0.00 38 1018.1
20260510004548 63 62 1.0 8.0 0.00 0.00 0.00 36 1018.1
20260510003049 63 328 4.0 8.0 0.00 0.00 0.00 35 1018.1
20260510001543 65 6 4.0 7.0 0.00 0.00 0.00 35 1017.9
20260510000050 65 61 4.0 8.0 0.00 0.00 0.00 35 1017.8
20260509234541 64 36 1.0 4.0 0.00 0.00 0.00 37 1017.9
20260509233040 64 341 4.0 6.0 0.00 0.00 0.00 36 1017.9
20260509231536 64 360 2.0 6.0 0.00 0.00 0.00 37 1018.0
20260509230044 64 134 1.0 4.0 0.00 0.00 0.00 36 1017.9
20260509224542 63 332 1.0 3.0 0.00 0.00 0.00 35 1018.0
20260509223036 63 0 0.0 5.0 0.00 0.00 0.00 36 1018.0
20260509221533 63 325 5.0 9.0 0.00 0.00 0.00 36 1018.2
20260509220046 62 236 3.0 8.0 0.00 0.00 0.00 36 1018.2
20260509214540 63 79 4.0 10.0 0.00 0.00 0.00 37 1018.1
20260509213038 62 65 6.0 12.0 0.00 0.00 0.00 39 1018.1
20260509211541 61 89 7.0 15.0 0.00 0.00 0.00 39 1018.1
20260509210039 61 35 9.0 17.0 0.00 0.00 0.00 40 1018.0
20260509204550 62 8 9.0 13.0 0.00 0.00 0.00 35 1018.1
20260509203040 63 89 1.0 7.0 0.00 0.00 0.00 35 1018.1
20260509201540 62 12 3.0 15.0 0.00 0.00 0.00 34 1018.0
20260509200038 63 218 0.0 8.0 0.00 0.00 0.00 36 1017.9
20260509194536 61 120 4.0 11.0 0.00 0.00 0.00 36 1017.9
20260509193043 60 25 5.0 18.0 0.00 0.00 0.00 37 1017.9
20260509191542 60 52 10.0 17.0 0.00 0.00 0.00 39 1017.6
20260509190049 60 79 4.0 10.0 0.00 0.00 0.00 38 1017.7
20260509184540 60 314 6.0 22.0 0.00 0.00 0.00 36 1017.7
20260509183033 61 328 13.0 25.0 0.00 0.00 0.00 36 1017.3
20260509181544 62 278 13.0 26.0 0.00 0.00 0.00 33 1016.9
20260509180043 61 303 13.0 24.0 0.00 0.00 0.00 33 1017.1
20260509174542 61 320 15.0 28.0 0.00 0.00 0.00 34 1017.3
20260509173036 61 266 11.0 26.0 0.00 0.00 0.00 34 1017.4
20260509171537 60 309 12.0 22.0 0.00 0.00 0.00 35 1017.4
20260509170043 59 305 14.0 26.0 0.00 0.00 0.00 35 1017.4
20260509164542 59 308 15.0 28.0 0.00 0.00 0.00 36 1017.4
20260509163045 59 297 12.0 24.0 0.00 0.00 0.00 36 1017.4
20260509161544 58 327 16.0 27.0 0.00 0.00 0.00 36 1017.3
20260509160047 58 322 17.0 28.0 0.00 0.00 0.00 37 1017.1
20260509154546 58 321 13.0 23.0 0.00 0.00 0.00 41 1017.1
20260509153043 57 347 10.0 14.0 0.00 0.00 0.00 41 1017.1
20260509151542 56 314 8.0 13.0 0.00 0.00 0.00 41 1016.9
20260509150044 56 343 7.0 16.0 0.00 0.00 0.00 41 1016.8